Location: Corocito
(10.1894°N, 67.0986°W)
Time: 10:30:48
(UTC+00:00)

Cosmos 921 Rocket - Pass Details

Date: 29 May 2024
Orbit: 568 x 625 km, 75.8° (Epoch: 16 June)

Event Time Altitude Azimuth Distance (km) Brightness Sun altitude
Rises 23:05:30 0° 188° (S) 2,871 6.3 -5.2°
Reaches altitude 10° 23:07:43 10° 186° (S) 1,974 5.5 -5.7°
Maximum altitude 23:12:08 76° 101° (E) 642 3.0 -6.7°
Drops below altitude 10° 23:16:34 10° 15° (NNE) 1,990 5.8 -7.7°
Sets 23:18:49 0° 14° (NNE) 2,897 6.6 -8.2°
